Location: Finch Observatory
(42.1604°N, 72.0115°W)
Time: 08:45:27
(UTC-04:00)

OTV 5 (USA 277) - Visible Passes

Search period start: 24 April 2018 00:00
Search period end: 04 May 2018 00:00
Orbit: 308 x 325 km, 54.5° (Epoch: 23 April)

Date Brightness Start Highest point End Pass type
(mag) Time Alt. Az. Time Alt. Az. Time Alt. Az.
24 Apr ? 20:06:41 10° NW 20:08:02 13° NNW 20:09:22 10° N visible
27 Apr ? 22:26:31 10° NNW 22:26:58 12° N 22:26:58 12° N visible
28 Apr ? 22:40:28 10° NNW 22:40:48 12° NNW 22:40:48 12° NNW visible
29 Apr ? 21:21:37 10° N 21:22:36 11° NNE 21:23:35 10° NE visible
30 Apr ? 21:35:21 10° NNW 21:37:23 19° NNE 21:37:37 18° NE visible
01 May ? 21:49:27 10° NW 21:51:30 33° N 21:51:30 33° N visible
02 May ? 20:30:18 10° NNW 20:31:54 14° NNE 20:33:30 10° ENE visible
02 May ? 22:03:49 10° NW 22:05:25 31° WNW 22:05:25 31° WNW visible
03 May ? 20:44:16 10° NNW 20:46:37 25° NNE 20:48:29 13° E visible
03 May ? 22:18:37 10° WNW 22:19:22 15° W 22:19:22 15° W visible
